Corpus Christi NAS, TX

3:16 AM CDT on April 30, 2017 (GMT -0500)
Corpus Christi Naval Air Station-Truax

Weather History for KNGP - September, 2012

Change the Weather History Date:

Saturday, September 1, 2012

  Actual Average Record
Temperature  
Mean Temperature 86 °F -  
Max Temperature 91 °F 88 °F 96 °F (2000)
Min Temperature 82 °F 74 °F 72 °F (1996)
Cooling Degree Days 22    
Growing Degree Days 36 (Base 50)    
Moisture  
Dew Point 75 °F    
Average Humidity 75    
Maximum Humidity 88    
Minimum Humidity 57    
Precipitation  
Precipitation 0.01 in - - ()
Sea Level Pressure  
Sea Level Pressure 30.01 in    
Wind  
Wind Speed 13 mph (SSE)    
Max Wind Speed 24 mph    
Max Gust Speed 30 mph    
Visibility 10 miles    
Events Rain    
Averages and records for this station are not official NWS values.
T = Trace of Precipitation, MM = Missing Value Source: NWS Daily Summary

Daily Weather History Graph

Daily Weather History Graph

Search for Another Location

Airport or City:

Trip Planner

Search our weather history database for the weather conditions in past years. The results will help you decide how hot, cold, wet, or windy it might be!

Date:

Astronomy

Sep. 01, 2012 Rise Set
Actual Time 7:08 AM CDT 7:49 PM CDT
Civil Twilight 6:44 AM CDT 8:12 PM CDT
Nautical Twilight 6:16 AM CDT 8:40 PM CDT
Astronomical Twilight 5:48 AM CDT 9:09 PM CDT
Moon 8:21 PM CDT (9/1) 8:05 AM CDT (9/1)
Length of Visible Light 13h 28m
Length of Day
12h 40m
Full, 99% of the Moon is Illuminated
Sep 1
Full
Sep 8
Last Quarter
Sep 15
New
Sep 22
First Quarter
Sep 29
Full

Hourly Weather History & Observations

Time (CDT) Temp. Heat Index Dew Point Humidity Pressure Visibility Wind Dir Wind Speed Gust Speed Precip Events Conditions
12:56 AM 82.9 °F 90.8 °F 75.9 °F 79% 29.98 in 10.0 mi SSE 16.1 mph - N/A   Partly Cloudy
1:56 AM 82.9 °F 90.8 °F 75.9 °F 79% 29.98 in 10.0 mi SSE 13.8 mph - N/A   Scattered Clouds
2:56 AM 82.9 °F 90.2 °F 75.0 °F 77% 29.98 in 10.0 mi South 13.8 mph - N/A   Partly Cloudy
3:42 AM 82.4 °F 89.5 °F 75.2 °F 79% 29.97 in 10.0 mi SSE 16.1 mph 20.7 mph 0.00 in Rain Light Rain
3:56 AM 82.0 °F 91.0 °F 78.1 °F 88% 29.98 in 10.0 mi SSE 10.4 mph - 0.01 in Rain Light Rain
4:05 AM 82.4 °F 90.9 °F 77.0 °F 84% 29.98 in 10.0 mi SSE 12.7 mph - N/A   Scattered Clouds
4:56 AM 82.9 °F 91.8 °F 77.0 °F 82% 29.98 in 10.0 mi SSE 11.5 mph - N/A   Scattered Clouds
5:56 AM 82.9 °F 91.8 °F 77.0 °F 82% 29.98 in 10.0 mi SSE 10.4 mph - N/A   Clear
6:56 AM 82.0 °F 90.2 °F 77.0 °F 85% 30.00 in 10.0 mi SSE 10.4 mph - N/A   Scattered Clouds
7:07 AM 82.4 °F 90.9 °F 77.0 °F 84% 30.00 in 10.0 mi SSE 8.1 mph - N/A   Mostly Cloudy
7:32 AM 82.4 °F 90.9 °F 77.0 °F 84% 30.00 in 10.0 mi SSE 8.1 mph - N/A   Scattered Clouds
7:56 AM 84.0 °F 94.8 °F 78.1 °F 82% 30.01 in 10.0 mi SSE 5.8 mph - N/A   Mostly Cloudy
8:04 AM 84.2 °F 96.1 °F 78.8 °F 84% 30.01 in 10.0 mi SSE 9.2 mph - N/A   Scattered Clouds
8:56 AM 82.9 °F 91.8 °F 77.0 °F 82% 30.03 in 10.0 mi SSE 6.9 mph - N/A   Clear
9:56 AM 86.0 °F 96.0 °F 75.9 °F 72% 30.05 in 10.0 mi SSE 11.5 mph - N/A   Partly Cloudy
10:26 AM 87.8 °F 99.7 °F 77.0 °F 70% 30.06 in 10.0 mi SSE 17.3 mph 20.7 mph N/A   Mostly Cloudy
10:35 AM 89.6 °F 102.2 °F 77.0 °F 66% 30.06 in 10.0 mi SSE 17.3 mph - N/A   Mostly Cloudy
10:56 AM 90.0 °F 102.5 °F 77.0 °F 65% 30.06 in 10.0 mi SSE 16.1 mph 24.2 mph N/A   Partly Cloudy
11:56 AM 84.9 °F 90.1 °F 71.1 °F 63% 30.06 in 10.0 mi South 16.1 mph 24.2 mph N/A   Scattered Clouds
12:56 PM 86.0 °F 92.2 °F 72.0 °F 63% 30.06 in 10.0 mi SSE 15.0 mph - N/A   Clear
1:56 PM 88.0 °F 95.6 °F 73.0 °F 61% 30.04 in 10.0 mi SSE 13.8 mph - N/A   Clear
2:56 PM 91.0 °F 100.4 °F 73.9 °F 57% 30.04 in 10.0 mi SSE 24.2 mph 29.9 mph N/A   Clear
3:56 PM 84.9 °F 90.7 °F 72.0 °F 65% 30.03 in 10.0 mi South 13.8 mph 23.0 mph 0.00 in Rain Light Rain
4:56 PM 84.0 °F 89.0 °F 71.1 °F 65% 29.99 in 10.0 mi South 6.9 mph - 0.00 in   Clear
5:56 PM 86.0 °F 93.0 °F 73.0 °F 65% 29.98 in 10.0 mi SE 10.4 mph - N/A   Clear
6:56 PM 84.9 °F 90.1 °F 71.1 °F 63% 29.99 in 10.0 mi South 9.2 mph - N/A   Clear
7:56 PM 82.9 °F 89.4 °F 73.9 °F 74% 29.99 in 10.0 mi SSE 11.5 mph - N/A   Clear
8:56 PM 82.9 °F 90.2 °F 75.0 °F 77% 30.00 in 10.0 mi SSE 15.0 mph - N/A   Partly Cloudy
9:56 PM 82.9 °F 90.8 °F 75.9 °F 79% 30.01 in 10.0 mi SSE 12.7 mph - N/A   Partly Cloudy
10:56 PM 82.9 °F 91.8 °F 77.0 °F 82% 30.01 in 10.0 mi SSE 13.8 mph - N/A   Clear
11:56 PM 82.9 °F 91.8 °F 77.0 °F 82% 30.01 in 10.0 mi SSE 12.7 mph - N/A   Partly Cloudy